Hourly Data Report for January 19, 2006

TORONTO CITY
ONTARIO

43°40'00.000" N
79°24'00.000" W
112.50 m
6158355
71508
XTO

Download Data

Hourly Data (January 2006)
Hourly Data Report for January 19, 2006
TIME
LST
Temp Definition
°C
Dew Point Definition
°C
Rel Hum Definition
%
Precip. Amount Definition
mm

Wind Dir Definition
10's deg

Wind Spd Definition
km/h
Visibility Definition
km
Stn Press Definition
kPa
Hmdx Definition


Wind Chill Definition


Weather Definition


00:00 -1.7 -5.5 75   LegendMM LegendMM   99.97     LegendNANA
01:00 -1.5 -5.4 75   LegendMM LegendMM   100.06     LegendNANA
02:00 -1.4 -5.9 71   LegendMM LegendMM   100.16     LegendNANA
03:00 -1.4 -5.8 72   LegendMM LegendMM   100.26     LegendNANA
04:00 -1.5 -5.9 72   LegendMM LegendMM   100.34     LegendNANA
05:00 -2.1 -5.5 77   LegendMM LegendMM   100.40     LegendNANA
06:00 -1.8 -5.1 78   LegendMM LegendMM   100.46     LegendNANA
07:00 -1.7 -4.7 80   LegendMM LegendMM   100.50     LegendNANA
08:00 -1.6 -4.5 81   LegendMM LegendMM   100.61     LegendNANA
09:00 -0.8 -3.7 81   LegendMM LegendMM   100.65     LegendNANA
10:00 0.3 -3.3 77   LegendMM LegendMM   100.59     LegendNANA
11:00 1.9 -1.9 76   LegendMM LegendMM   100.53     LegendNANA
12:00 2.4 -0.9 79   LegendMM LegendMM   100.44     LegendNANA
13:00 2.9 -0.8 77   LegendMM LegendMM   100.33     LegendNANA
14:00 3.2 -0.9 74   LegendMM LegendMM   100.32     LegendNANA
15:00 3.6 -1.3 70   LegendMM LegendMM   100.22     LegendNANA
16:00 3.6 -1.1 71   LegendMM LegendMM   100.17     LegendNANA
17:00 3.4 -0.6 75   LegendMM LegendMM   100.05     LegendNANA
18:00 3.5 -0.3 76   LegendMM LegendMM   100.09     LegendNANA
19:00 3.8 0.6 80   LegendMM LegendMM   100.08     LegendNANA
20:00 4.1 0.1 75   LegendMM LegendMM   100.05     LegendNANA
21:00 4.3 0.3 75   LegendMM LegendMM   99.99     LegendNANA
22:00 4.3 0.7 77   LegendMM LegendMM   99.93     LegendNANA
23:00 4.3 1.1 80   LegendMM LegendMM   99.87     LegendNANA

Notes on Data Quality.

Legend

  • E = Estimated
  • M = Missing
  • NA = Not Available*
  • [empty] = Indicates an unobserved value
Date modified: